Location: Waco, TX
(31.5480°N, 97.1670°W)
Time: 16:33:29
(UTC-06:00)

ISS - Pass Details

Date: 19 January 2018
Orbit: 402 x 407 km, 51.6° (Epoch: 22 January)

Event Time Altitude Azimuth Distance (km) Brightness Sun altitude
Rises 05:50:30 0° 304° (WNW) 2,319 - -20.5°
Reaches altitude 10° 05:52:44 10° 292° (WNW) 1,458 - -20.1°
Maximum altitude 05:55:36 29° 231° (SW) 780 - -19.5°
Exits shadow 05:56:34 24° 199° (SSW) 880 -2.2 -19.3°
Drops below altitude 10° 05:58:28 10° 169° (S) 1,452 -0.7 -18.9°
Sets 06:00:42 0° 157° (SSE) 2,309 0.5 -18.4°
